Year,Month,Day,Hour,Minute,Value (Times are PST for windgust in km/hr)
2018,12,20,00,00,8.10
2018,12,20,00,01,9.60
2018,12,20,00,02,4.80
2018,12,20,00,03,1.60
2018,12,20,00,04,1.60
2018,12,20,00,07,1.60
2018,12,20,00,08,1.60
2018,12,20,00,09,1.60
2018,12,20,00,10,1.60
2018,12,20,00,11,4.80
2018,12,20,00,12,4.80
2018,12,20,00,13,3.20
2018,12,20,00,15,4.80
2018,12,20,00,18,1.60
2018,12,20,00,19,6.40
2018,12,20,00,20,1.60
2018,12,20,00,21,1.60
2018,12,20,00,22,3.20
2018,12,20,00,23,4.80
2018,12,20,00,24,9.60
2018,12,20,00,25,8.10
2018,12,20,00,26,11.30
2018,12,20,00,27,1.60
2018,12,20,00,28,6.40
2018,12,20,00,29,6.40
2018,12,20,00,30,9.60
2018,12,20,00,31,3.20
2018,12,20,00,32,1.60
2018,12,20,00,33,17.70
2018,12,20,00,34,12.90
2018,12,20,00,35,6.40
2018,12,20,00,36,4.80
2018,12,20,00,37,4.80
2018,12,20,00,38,6.40
2018,12,20,00,39,4.80
2018,12,20,00,40,12.90
2018,12,20,00,41,12.90
2018,12,20,00,42,14.50
2018,12,20,00,43,11.30
2018,12,20,00,44,14.50
2018,12,20,00,45,11.30
2018,12,20,00,46,8.10
2018,12,20,00,47,11.30
2018,12,20,00,48,9.60
2018,12,20,00,49,8.10
2018,12,20,00,50,4.80
2018,12,20,00,51,6.40
2018,12,20,00,52,11.30
2018,12,20,00,53,11.30
2018,12,20,00,54,17.70
2018,12,20,00,55,9.60
2018,12,20,00,56,11.30
2018,12,20,00,57,9.60
2018,12,20,00,58,14.50
2018,12,20,00,59,9.60
2018,12,20,01,00,9.60
2018,12,20,01,01,4.80
2018,12,20,01,02,9.60
2018,12,20,01,03,3.20
2018,12,20,01,04,8.10
2018,12,20,01,05,20.90
2018,12,20,01,06,11.30
2018,12,20,01,07,16.10
2018,12,20,01,08,11.30
2018,12,20,01,09,12.90
2018,12,20,01,10,20.90
2018,12,20,01,11,14.50
2018,12,20,01,12,16.10
2018,12,20,01,13,12.90
2018,12,20,01,14,16.10
2018,12,20,01,15,12.90
2018,12,20,01,16,12.90
2018,12,20,01,17,14.50
2018,12,20,01,18,14.50
2018,12,20,01,19,17.70
2018,12,20,01,20,9.60
2018,12,20,01,21,9.60
2018,12,20,01,22,9.60
2018,12,20,01,23,4.80
2018,12,20,01,24,8.10
2018,12,20,01,25,9.60
2018,12,20,01,26,12.90
2018,12,20,01,27,14.50
2018,12,20,01,28,14.50
2018,12,20,01,29,11.30
2018,12,20,01,30,8.10
2018,12,20,01,31,8.10
2018,12,20,01,32,6.40
2018,12,20,01,33,6.40
2018,12,20,01,34,8.10
2018,12,20,01,35,11.30
2018,12,20,01,36,11.30
2018,12,20,01,37,6.40
2018,12,20,01,38,3.20
2018,12,20,01,39,8.10
2018,12,20,01,40,9.60
2018,12,20,01,41,8.10
2018,12,20,01,42,8.10
2018,12,20,01,43,14.50
2018,12,20,01,44,14.50
2018,12,20,01,45,14.50
2018,12,20,01,46,12.90
2018,12,20,01,47,16.10
2018,12,20,01,48,14.50
2018,12,20,01,49,11.30
2018,12,20,01,50,11.30
2018,12,20,01,51,16.10
2018,12,20,01,52,19.30
2018,12,20,01,53,14.50
2018,12,20,01,54,19.30
2018,12,20,01,55,19.30
2018,12,20,01,56,27.40
2018,12,20,01,57,20.90
2018,12,20,01,58,14.50
2018,12,20,01,59,16.10
2018,12,20,02,00,12.90
2018,12,20,02,01,11.30
2018,12,20,02,02,9.60
2018,12,20,02,03,12.90
2018,12,20,02,04,11.30
2018,12,20,02,05,20.90
2018,12,20,02,06,19.30
2018,12,20,02,07,19.30
2018,12,20,02,08,12.90
2018,12,20,02,09,17.70
2018,12,20,02,10,16.10
2018,12,20,02,11,9.60
2018,12,20,02,12,11.30
2018,12,20,02,13,11.30
2018,12,20,02,14,9.60
2018,12,20,02,15,6.40
2018,12,20,02,16,11.30
2018,12,20,02,17,16.10
2018,12,20,02,18,11.30
2018,12,20,02,19,11.30
2018,12,20,02,20,12.90
2018,12,20,02,21,14.50
2018,12,20,02,22,11.30
2018,12,20,02,23,12.90
2018,12,20,02,24,12.90
2018,12,20,02,25,14.50
2018,12,20,02,26,14.50
2018,12,20,02,27,14.50
2018,12,20,02,28,17.70
2018,12,20,02,29,14.50
2018,12,20,02,30,16.10
2018,12,20,02,31,8.10
2018,12,20,02,32,9.60
2018,12,20,02,33,8.10
2018,12,20,02,34,9.60
2018,12,20,02,35,17.70
2018,12,20,02,36,12.90
2018,12,20,02,37,11.30
2018,12,20,02,38,17.70
2018,12,20,02,39,30.60
2018,12,20,02,40,12.90
2018,12,20,02,41,8.10
2018,12,20,02,42,8.10
2018,12,20,02,43,12.90
2018,12,20,02,44,17.70
2018,12,20,02,45,19.30
2018,12,20,02,46,11.30
2018,12,20,02,47,16.10
2018,12,20,02,48,14.50
2018,12,20,02,49,14.50
2018,12,20,02,50,20.90
2018,12,20,02,51,16.10
2018,12,20,02,52,16.10
2018,12,20,02,53,14.50
2018,12,20,02,54,11.30
2018,12,20,02,55,14.50
2018,12,20,02,56,14.50
2018,12,20,02,57,11.30
2018,12,20,02,58,17.70
2018,12,20,02,59,11.30
2018,12,20,03,00,16.10
2018,12,20,03,01,12.90
2018,12,20,03,02,11.30
2018,12,20,03,03,11.30
2018,12,20,03,04,19.30
2018,12,20,03,05,14.50
2018,12,20,03,06,11.30
2018,12,20,03,07,30.60
2018,12,20,03,08,22.50
2018,12,20,03,09,19.30
2018,12,20,03,10,14.50
2018,12,20,03,11,22.50
2018,12,20,03,12,30.60
2018,12,20,03,13,16.10
2018,12,20,03,14,14.50
2018,12,20,03,15,9.60
2018,12,20,03,16,12.90
2018,12,20,03,17,16.10
2018,12,20,03,18,12.90
2018,12,20,03,19,17.70
2018,12,20,03,20,14.50
2018,12,20,03,21,14.50
2018,12,20,03,22,20.90
2018,12,20,03,23,14.50
2018,12,20,03,24,9.60
2018,12,20,03,25,11.30
2018,12,20,03,26,12.90
2018,12,20,03,27,12.90
2018,12,20,03,28,8.10
2018,12,20,03,29,14.50
2018,12,20,03,30,9.60
2018,12,20,03,31,8.10
2018,12,20,03,32,17.70
2018,12,20,03,33,12.90
2018,12,20,03,34,4.80
2018,12,20,03,36,4.80
2018,12,20,03,37,3.20
2018,12,20,03,38,6.40
2018,12,20,03,39,4.80
2018,12,20,03,40,6.40
2018,12,20,03,41,8.10
2018,12,20,03,42,1.60
2018,12,20,03,43,8.10
2018,12,20,03,44,3.20
2018,12,20,03,45,4.80
2018,12,20,03,46,6.40
2018,12,20,03,47,19.30
2018,12,20,03,48,14.50
2018,12,20,03,49,14.50
2018,12,20,03,50,8.10
2018,12,20,03,51,6.40
2018,12,20,03,52,9.60
2018,12,20,03,53,4.80
2018,12,20,03,54,3.20
2018,12,20,03,55,14.50
2018,12,20,03,56,9.60
2018,12,20,03,57,8.10
2018,12,20,03,58,9.60
2018,12,20,03,59,12.90
2018,12,20,04,00,6.40
2018,12,20,04,01,14.50
2018,12,20,04,02,17.70
2018,12,20,04,03,8.10
2018,12,20,04,04,6.40
2018,12,20,04,08,6.40
2018,12,20,04,09,6.40
2018,12,20,04,10,3.20
2018,12,20,04,11,1.60
2018,12,20,04,12,1.60
2018,12,20,04,14,11.30
2018,12,20,04,15,8.10
2018,12,20,04,16,3.20
2018,12,20,04,17,3.20
2018,12,20,04,18,6.40
2018,12,20,04,19,9.60
2018,12,20,04,20,8.10
2018,12,20,04,21,6.40
2018,12,20,04,22,9.60
2018,12,20,04,23,8.10
2018,12,20,04,24,4.80
2018,12,20,04,25,3.20
2018,12,20,04,26,3.20
2018,12,20,04,27,4.80
2018,12,20,04,28,12.90
2018,12,20,04,29,9.60
2018,12,20,04,30,14.50
2018,12,20,04,31,17.70
2018,12,20,04,32,14.50
2018,12,20,04,33,20.90
2018,12,20,04,34,17.70
2018,12,20,04,35,6.40
2018,12,20,04,36,8.10
2018,12,20,04,37,16.10
2018,12,20,04,38,22.50
2018,12,20,04,39,11.30
2018,12,20,04,40,12.90
2018,12,20,04,41,12.90
2018,12,20,04,42,12.90
2018,12,20,04,43,11.30
2018,12,20,04,44,11.30
2018,12,20,04,45,4.80
2018,12,20,04,46,12.90
2018,12,20,04,47,14.50
2018,12,20,04,48,11.30
2018,12,20,04,49,9.60
2018,12,20,04,50,8.10
2018,12,20,04,51,6.40
2018,12,20,04,52,4.80
2018,12,20,04,53,6.40
2018,12,20,04,54,12.90
2018,12,20,04,55,9.60
2018,12,20,04,56,9.60
2018,12,20,04,57,8.10
2018,12,20,04,58,16.10
2018,12,20,04,59,19.30
2018,12,20,05,00,11.30
2018,12,20,05,01,8.10
2018,12,20,05,02,12.90
2018,12,20,05,03,9.60
2018,12,20,05,04,9.60
2018,12,20,05,05,14.50
2018,12,20,05,06,9.60
2018,12,20,05,07,9.60
2018,12,20,05,08,16.10
2018,12,20,05,09,12.90
2018,12,20,05,10,14.50
2018,12,20,05,11,11.30
2018,12,20,05,12,9.60
2018,12,20,05,13,8.10
2018,12,20,05,14,9.60
2018,12,20,05,15,17.70
2018,12,20,05,16,19.30
2018,12,20,05,17,11.30
2018,12,20,05,18,11.30
2018,12,20,05,19,16.10
2018,12,20,05,20,17.70
2018,12,20,05,21,17.70
2018,12,20,05,22,19.30
2018,12,20,05,23,20.90
2018,12,20,05,24,20.90
2018,12,20,05,25,27.40
2018,12,20,05,26,20.90
2018,12,20,05,27,25.70
2018,12,20,05,28,19.30
2018,12,20,05,29,33.80
2018,12,20,05,30,22.50
2018,12,20,05,31,22.50
2018,12,20,05,32,16.10
2018,12,20,05,33,20.90
2018,12,20,05,34,20.90
2018,12,20,05,35,19.30
2018,12,20,05,36,14.50
2018,12,20,05,37,16.10
2018,12,20,05,38,11.30
2018,12,20,05,39,12.90
2018,12,20,05,40,17.70
2018,12,20,05,41,17.70
2018,12,20,05,42,12.90
2018,12,20,05,43,9.60
2018,12,20,05,44,16.10
2018,12,20,05,45,20.90
2018,12,20,05,46,19.30
2018,12,20,05,47,20.90
2018,12,20,05,48,22.50
2018,12,20,05,49,35.40
2018,12,20,05,50,24.20
2018,12,20,05,51,20.90
2018,12,20,05,52,27.40
2018,12,20,05,53,20.90
2018,12,20,05,54,19.30
2018,12,20,05,55,17.70
2018,12,20,05,56,24.20
2018,12,20,05,57,22.50
2018,12,20,05,58,22.50
2018,12,20,05,59,20.90
2018,12,20,06,00,30.60
2018,12,20,06,01,20.90
2018,12,20,06,02,20.90
2018,12,20,06,03,20.90
2018,12,20,06,04,17.70
2018,12,20,06,05,17.70
2018,12,20,06,06,24.20
2018,12,20,06,07,17.70
2018,12,20,06,08,22.50
2018,12,20,06,09,24.20
2018,12,20,06,10,20.90
2018,12,20,06,11,17.70
2018,12,20,06,12,25.70
2018,12,20,06,13,24.20
2018,12,20,06,14,33.80
2018,12,20,06,15,22.50
2018,12,20,06,16,19.30
2018,12,20,06,17,22.50
2018,12,20,06,18,25.70
2018,12,20,06,19,17.70
2018,12,20,06,20,12.90
2018,12,20,06,21,16.10
2018,12,20,06,22,20.90
2018,12,20,06,23,24.20
2018,12,20,06,24,24.20
2018,12,20,06,25,19.30
2018,12,20,06,26,25.70
2018,12,20,06,27,30.60
2018,12,20,06,28,24.20
2018,12,20,06,29,25.70
2018,12,20,06,30,29.00
2018,12,20,06,31,24.20
2018,12,20,06,32,30.60
2018,12,20,06,33,25.70
2018,12,20,06,34,22.50
2018,12,20,06,35,17.70
2018,12,20,06,36,24.20
2018,12,20,06,37,29.00
2018,12,20,06,38,30.60
2018,12,20,06,39,24.20
2018,12,20,06,40,19.30
2018,12,20,06,41,32.20
2018,12,20,06,42,33.80
2018,12,20,06,43,29.00
2018,12,20,06,44,29.00
2018,12,20,06,45,30.60
2018,12,20,06,46,32.20
2018,12,20,06,47,24.20
2018,12,20,06,48,29.00
2018,12,20,06,49,22.50
2018,12,20,06,50,19.30
2018,12,20,06,51,22.50
2018,12,20,06,52,35.40
2018,12,20,06,53,29.00
2018,12,20,06,54,24.20
2018,12,20,06,55,25.70
2018,12,20,06,56,24.20
2018,12,20,06,57,25.70
2018,12,20,06,58,22.50
2018,12,20,06,59,22.50
2018,12,20,07,00,24.20
2018,12,20,07,01,29.00
2018,12,20,07,02,25.70
2018,12,20,07,03,22.50
2018,12,20,07,04,22.50
2018,12,20,07,05,30.60
2018,12,20,07,06,25.70
2018,12,20,07,07,22.50
2018,12,20,07,08,27.40
2018,12,20,07,09,27.40
2018,12,20,07,10,22.50
2018,12,20,07,11,30.60
2018,12,20,07,12,29.00
2018,12,20,07,13,24.20
2018,12,20,07,14,22.50
2018,12,20,07,15,19.30
2018,12,20,07,16,22.50
2018,12,20,07,17,22.50
2018,12,20,07,18,25.70
2018,12,20,07,19,25.70
2018,12,20,07,20,30.60
2018,12,20,07,21,24.20
2018,12,20,07,22,24.20
2018,12,20,07,23,25.70
2018,12,20,07,24,22.50
2018,12,20,07,25,30.60
2018,12,20,07,26,29.00
2018,12,20,07,27,29.00
2018,12,20,07,28,25.70
2018,12,20,07,29,20.90
2018,12,20,07,30,30.60
2018,12,20,07,31,32.20
2018,12,20,07,32,20.90
2018,12,20,07,33,30.60
2018,12,20,07,34,22.50
2018,12,20,07,35,27.40
2018,12,20,07,36,24.20
2018,12,20,07,37,32.20
2018,12,20,07,38,25.70
2018,12,20,07,39,20.90
2018,12,20,07,40,24.20
2018,12,20,07,41,25.70
2018,12,20,07,42,29.00
2018,12,20,07,43,27.40
2018,12,20,07,44,22.50
2018,12,20,07,45,25.70
2018,12,20,07,46,25.70
2018,12,20,07,47,24.20
2018,12,20,07,48,27.40
2018,12,20,07,49,27.40
2018,12,20,07,50,30.60
2018,12,20,07,51,29.00
2018,12,20,07,52,33.80
2018,12,20,07,53,20.90
2018,12,20,07,54,22.50
2018,12,20,07,55,20.90
2018,12,20,07,56,25.70
2018,12,20,07,57,19.30
2018,12,20,07,58,27.40
2018,12,20,07,59,22.50
2018,12,20,08,00,22.50
2018,12,20,08,01,19.30
2018,12,20,08,02,24.20
2018,12,20,08,03,19.30
2018,12,20,08,04,20.90
2018,12,20,08,05,20.90
2018,12,20,08,06,20.90
2018,12,20,08,07,24.20
2018,12,20,08,08,22.50
2018,12,20,08,09,14.50
2018,12,20,08,10,17.70
2018,12,20,08,11,19.30
2018,12,20,08,12,27.40
2018,12,20,08,13,22.50
2018,12,20,08,14,16.10
2018,12,20,08,15,22.50
2018,12,20,08,16,20.90
2018,12,20,08,17,24.20
2018,12,20,08,18,24.20
2018,12,20,08,19,20.90
2018,12,20,08,20,29.00
2018,12,20,08,21,24.20
2018,12,20,08,22,38.60
2018,12,20,08,23,22.50
2018,12,20,08,24,27.40
2018,12,20,08,25,30.60
2018,12,20,08,26,22.50
2018,12,20,08,27,24.20
2018,12,20,08,28,20.90
2018,12,20,08,29,17.70
2018,12,20,08,30,25.70
2018,12,20,08,31,17.70
2018,12,20,08,32,22.50
2018,12,20,08,33,20.90
2018,12,20,08,34,22.50
2018,12,20,08,35,22.50
2018,12,20,08,36,19.30
2018,12,20,08,37,19.30
2018,12,20,08,38,20.90
2018,12,20,08,39,19.30
2018,12,20,08,40,24.20
2018,12,20,08,41,20.90
2018,12,20,08,42,19.30
2018,12,20,08,43,14.50
2018,12,20,08,44,16.10
2018,12,20,08,45,14.50
2018,12,20,08,46,19.30
2018,12,20,08,47,22.50
2018,12,20,08,48,22.50
2018,12,20,08,49,20.90
2018,12,20,08,50,16.10
2018,12,20,08,51,16.10
2018,12,20,08,52,19.30
2018,12,20,08,53,24.20
2018,12,20,08,54,22.50
2018,12,20,08,55,24.20
2018,12,20,08,56,16.10
2018,12,20,08,57,24.20
2018,12,20,08,58,20.90
2018,12,20,08,59,20.90
2018,12,20,09,00,19.30
2018,12,20,09,01,20.90
2018,12,20,09,02,24.20
2018,12,20,09,03,19.30
2018,12,20,09,04,17.70
2018,12,20,09,05,19.30
2018,12,20,09,06,24.20
2018,12,20,09,07,17.70
2018,12,20,09,08,24.20
2018,12,20,09,09,22.50
2018,12,20,09,10,24.20
2018,12,20,09,11,20.90
2018,12,20,09,12,20.90
2018,12,20,09,13,19.30
2018,12,20,09,14,14.50
2018,12,20,09,15,29.00
2018,12,20,09,16,27.40
2018,12,20,09,17,20.90
2018,12,20,09,18,17.70
2018,12,20,09,19,11.30
2018,12,20,09,20,14.50
2018,12,20,09,21,17.70
2018,12,20,09,22,19.30
2018,12,20,09,23,17.70
2018,12,20,09,24,17.70
2018,12,20,09,25,16.10
2018,12,20,09,26,16.10
2018,12,20,09,27,16.10
2018,12,20,09,28,17.70
2018,12,20,09,29,14.50
2018,12,20,09,30,12.90
2018,12,20,09,31,19.30
2018,12,20,09,32,22.50
2018,12,20,09,33,17.70
2018,12,20,09,34,17.70
2018,12,20,09,35,14.50
2018,12,20,09,36,16.10
2018,12,20,09,37,14.50
2018,12,20,09,38,17.70
2018,12,20,09,39,14.50
2018,12,20,09,40,11.30
2018,12,20,09,41,19.30
2018,12,20,09,42,20.90
2018,12,20,09,43,27.40
2018,12,20,09,44,16.10
2018,12,20,09,45,11.30
2018,12,20,09,46,11.30
2018,12,20,09,47,6.40
2018,12,20,09,48,14.50
2018,12,20,09,49,19.30
2018,12,20,09,50,12.90
2018,12,20,09,51,12.90
2018,12,20,09,52,14.50
2018,12,20,09,53,14.50
2018,12,20,09,54,24.20
2018,12,20,09,55,16.10
2018,12,20,09,56,14.50
2018,12,20,09,57,9.60
2018,12,20,09,58,25.70
2018,12,20,09,59,19.30
2018,12,20,10,00,19.30
2018,12,20,10,01,17.70
2018,12,20,10,02,16.10
2018,12,20,10,03,16.10
2018,12,20,10,04,11.30
2018,12,20,10,05,9.60
2018,12,20,10,06,4.80
2018,12,20,10,07,3.20
2018,12,20,10,08,6.40
2018,12,20,10,09,6.40
2018,12,20,10,10,1.60
2018,12,20,10,11,4.80
2018,12,20,10,12,1.60
2018,12,20,10,13,3.20
2018,12,20,10,14,6.40
2018,12,20,10,15,8.10
2018,12,20,10,16,6.40
2018,12,20,10,17,3.20
2018,12,20,10,18,8.10
2018,12,20,10,19,11.30
2018,12,20,10,20,14.50
2018,12,20,10,21,12.90
2018,12,20,10,22,12.90
2018,12,20,10,23,14.50
2018,12,20,10,24,12.90
2018,12,20,10,25,11.30
2018,12,20,10,26,9.60
2018,12,20,10,27,9.60
2018,12,20,10,28,9.60
2018,12,20,10,29,11.30
2018,12,20,10,30,6.40
2018,12,20,10,31,8.10
2018,12,20,10,32,4.80
2018,12,20,10,33,4.80
2018,12,20,10,37,1.60
2018,12,20,10,38,6.40
2018,12,20,10,39,6.40
2018,12,20,10,40,1.60
2018,12,20,10,41,1.60
2018,12,20,10,42,4.80
2018,12,20,10,43,4.80
2018,12,20,10,44,3.20
2018,12,20,10,45,3.20
2018,12,20,10,50,1.60
2018,12,20,10,51,3.20
2018,12,20,10,52,4.80
2018,12,20,10,53,3.20
2018,12,20,10,54,9.60
2018,12,20,10,55,9.60
2018,12,20,10,56,3.20
2018,12,20,10,57,9.60
2018,12,20,10,58,12.90
2018,12,20,10,59,12.90
2018,12,20,11,00,9.60
2018,12,20,11,01,6.40
2018,12,20,11,02,8.10
2018,12,20,11,03,4.80
2018,12,20,11,04,6.40
2018,12,20,11,05,25.70
2018,12,20,11,06,20.90
2018,12,20,11,07,4.80
2018,12,20,11,08,9.60
2018,12,20,11,09,8.10
2018,12,20,11,10,12.90
2018,12,20,11,11,12.90
2018,12,20,11,12,8.10
2018,12,20,11,13,22.50
2018,12,20,11,14,19.30
2018,12,20,11,15,16.10
2018,12,20,11,16,32.20
2018,12,20,11,17,19.30
2018,12,20,11,18,20.90
2018,12,20,11,19,12.90
2018,12,20,11,20,16.10
2018,12,20,11,21,14.50
2018,12,20,11,22,14.50
2018,12,20,11,23,12.90
2018,12,20,11,24,33.80
2018,12,20,11,25,25.70
2018,12,20,11,26,16.10
2018,12,20,11,27,22.50
2018,12,20,11,28,24.20
2018,12,20,11,29,16.10
2018,12,20,11,30,4.80
2018,12,20,11,31,24.20
2018,12,20,11,32,14.50
2018,12,20,11,33,33.80
2018,12,20,11,34,20.90
2018,12,20,11,35,17.70
2018,12,20,11,36,29.00
2018,12,20,11,37,33.80
2018,12,20,11,38,19.30
2018,12,20,11,39,14.50
2018,12,20,11,40,22.50
2018,12,20,11,41,30.60
2018,12,20,11,42,12.90
2018,12,20,11,43,14.50
2018,12,20,11,44,20.90
2018,12,20,11,45,29.00
2018,12,20,11,46,12.90
2018,12,20,11,47,16.10
2018,12,20,11,48,22.50
2018,12,20,11,49,14.50
2018,12,20,11,50,22.50
2018,12,20,11,51,17.70
2018,12,20,11,52,25.70
2018,12,20,11,53,32.20
2018,12,20,11,54,30.60
2018,12,20,11,55,16.10
2018,12,20,11,56,27.40
2018,12,20,11,57,22.50
2018,12,20,11,58,40.20
2018,12,20,11,59,25.70
2018,12,20,12,00,25.70
2018,12,20,12,01,20.90
2018,12,20,12,02,17.70
2018,12,20,12,03,25.70
2018,12,20,12,04,20.90
2018,12,20,12,05,27.40
2018,12,20,12,06,25.70
2018,12,20,12,07,49.90
2018,12,20,12,08,33.80
2018,12,20,12,09,19.30
2018,12,20,12,10,30.60
2018,12,20,12,11,14.50
2018,12,20,12,12,30.60
2018,12,20,12,13,19.30
2018,12,20,12,14,12.90
2018,12,20,12,15,6.40
2018,12,20,12,16,11.30
2018,12,20,12,17,11.30
2018,12,20,12,18,20.90
2018,12,20,12,19,16.10
2018,12,20,12,20,25.70
2018,12,20,12,21,20.90
2018,12,20,12,22,16.10
2018,12,20,12,23,14.50
2018,12,20,12,24,27.40
2018,12,20,12,25,35.40
2018,12,20,12,26,33.80
2018,12,20,12,27,11.30
2018,12,20,12,28,24.20
2018,12,20,12,29,17.70
2018,12,20,12,30,38.60
2018,12,20,12,31,30.60
2018,12,20,12,32,32.20
2018,12,20,12,33,30.60
2018,12,20,12,34,17.70
2018,12,20,12,35,30.60
2018,12,20,12,36,24.20
2018,12,20,12,37,41.80
2018,12,20,12,38,14.50
2018,12,20,12,39,14.50
2018,12,20,12,40,22.50
2018,12,20,12,41,30.60
2018,12,20,12,42,14.50
2018,12,20,13,21,6.40
2018,12,20,13,22,9.60
2018,12,20,13,23,11.30
2018,12,20,13,24,9.60
2018,12,20,13,25,8.10
2018,12,20,13,26,24.20
2018,12,20,13,27,24.20
2018,12,20,13,28,20.90
2018,12,20,13,29,32.20
2018,12,20,13,30,17.70
2018,12,20,13,31,38.60
2018,12,20,13,32,32.20
2018,12,20,13,33,38.60
2018,12,20,13,34,19.30
2018,12,20,13,35,25.70
2018,12,20,13,36,35.40
2018,12,20,13,37,11.30
2018,12,20,13,38,16.10
2018,12,20,13,39,35.40
2018,12,20,13,40,29.00
2018,12,20,13,41,38.60
2018,12,20,13,42,33.80
2018,12,20,13,43,25.70
2018,12,20,13,44,38.60
2018,12,20,13,45,37.00
2018,12,20,13,46,20.90
2018,12,20,13,47,32.20
2018,12,20,13,48,17.70
2018,12,20,13,49,12.90
2018,12,20,13,50,12.90
2018,12,20,13,51,43.50
2018,12,20,13,52,22.50
2018,12,20,13,53,35.40
2018,12,20,13,54,43.50
2018,12,20,13,55,29.00
2018,12,20,13,56,27.40
2018,12,20,13,57,46.70
2018,12,20,13,58,32.20
2018,12,20,13,59,29.00
2018,12,20,14,00,32.20
2018,12,20,14,01,35.40
2018,12,20,14,02,11.30
2018,12,20,14,03,20.90
2018,12,20,14,04,27.40
2018,12,20,14,05,35.40
2018,12,20,14,06,24.20
2018,12,20,14,07,29.00
2018,12,20,14,08,35.40
2018,12,20,14,09,33.80
2018,12,20,14,10,30.60
2018,12,20,14,11,45.10
2018,12,20,14,12,24.20
2018,12,20,14,13,25.70
2018,12,20,14,14,53.10
2018,12,20,14,15,30.60
2018,12,20,14,16,19.30
2018,12,20,14,17,37.00
2018,12,20,14,18,33.80
2018,12,20,14,19,29.00
2018,12,20,14,20,35.40
2018,12,20,14,21,29.00
2018,12,20,14,22,35.40
2018,12,20,14,23,41.80
2018,12,20,14,24,20.90
2018,12,20,14,25,38.60
2018,12,20,14,26,25.70
2018,12,20,14,27,29.00
2018,12,20,14,28,33.80
2018,12,20,14,29,35.40
2018,12,20,14,30,20.90
2018,12,20,14,31,30.60
2018,12,20,14,32,32.20
2018,12,20,14,33,30.60
2018,12,20,14,34,27.40
2018,12,20,14,35,30.60
2018,12,20,14,36,25.70
2018,12,20,14,37,41.80
2018,12,20,14,38,20.90
2018,12,20,14,39,40.20
2018,12,20,14,40,37.00
2018,12,20,14,41,38.60
2018,12,20,14,42,33.80
2018,12,20,14,43,29.00
2018,12,20,14,44,48.30
2018,12,20,14,45,37.00
2018,12,20,14,46,20.90
2018,12,20,14,47,32.20
2018,12,20,14,48,20.90
2018,12,20,14,49,35.40
2018,12,20,14,50,37.00
2018,12,20,14,51,17.70
2018,12,20,14,52,57.90
2018,12,20,14,53,25.70
2018,12,20,14,54,22.50
2018,12,20,14,55,19.30
2018,12,20,14,56,19.30
2018,12,20,14,57,29.00
2018,12,20,14,58,22.50
2018,12,20,14,59,14.50
2018,12,20,15,00,33.80
2018,12,20,15,01,25.70
2018,12,20,15,02,30.60
2018,12,20,15,03,29.00
2018,12,20,15,04,16.10
2018,12,20,15,05,41.80
2018,12,20,15,06,40.20
2018,12,20,15,07,32.20
2018,12,20,15,08,49.90
2018,12,20,15,09,35.40
2018,12,20,15,10,29.00
2018,12,20,15,11,24.20
2018,12,20,15,12,22.50
2018,12,20,15,13,30.60
2018,12,20,15,14,32.20
2018,12,20,15,15,32.20
2018,12,20,15,16,35.40
2018,12,20,15,17,17.70
2018,12,20,15,18,20.90
2018,12,20,15,19,30.60
2018,12,20,15,20,29.00
2018,12,20,15,21,25.70
2018,12,20,15,22,22.50
2018,12,20,15,23,41.80
2018,12,20,15,24,45.10
2018,12,20,15,25,40.20
2018,12,20,15,26,30.60
2018,12,20,15,27,32.20
2018,12,20,15,28,17.70
2018,12,20,15,29,19.30
2018,12,20,15,30,37.00
2018,12,20,15,31,46.70
2018,12,20,15,32,32.20
2018,12,20,15,33,32.20
2018,12,20,15,34,22.50
2018,12,20,15,35,33.80
2018,12,20,15,36,29.00
2018,12,20,15,37,40.20
2018,12,20,15,38,37.00
2018,12,20,15,39,24.20
2018,12,20,15,40,24.20
2018,12,20,15,41,24.20
2018,12,20,15,42,33.80
2018,12,20,15,43,19.30
2018,12,20,15,44,46.70
2018,12,20,15,45,35.40
2018,12,20,15,46,20.90
2018,12,20,15,47,16.10
2018,12,20,15,48,24.20
2018,12,20,15,49,22.50
2018,12,20,15,50,48.30
2018,12,20,15,51,30.60
2018,12,20,15,52,35.40
2018,12,20,15,53,25.70
2018,12,20,15,54,25.70
2018,12,20,15,55,17.70
2018,12,20,15,56,22.50
2018,12,20,15,57,25.70
2018,12,20,15,58,16.10
2018,12,20,15,59,19.30
2018,12,20,16,00,16.10
2018,12,20,16,01,22.50
2018,12,20,16,02,11.30
2018,12,20,16,03,8.10
2018,12,20,16,04,16.10
2018,12,20,16,05,25.70
2018,12,20,16,06,33.80
2018,12,20,16,07,25.70
2018,12,20,16,08,12.90
2018,12,20,16,09,14.50
2018,12,20,16,10,22.50
2018,12,20,16,11,19.30
2018,12,20,16,12,32.20
2018,12,20,16,13,20.90
2018,12,20,16,14,12.90
2018,12,20,16,15,6.40
2018,12,20,16,16,20.90
2018,12,20,16,17,22.50
2018,12,20,16,18,19.30
2018,12,20,16,19,20.90
2018,12,20,16,20,19.30
2018,12,20,16,21,25.70
2018,12,20,16,22,30.60
2018,12,20,16,23,27.40
2018,12,20,16,24,25.70
2018,12,20,16,25,17.70
2018,12,20,16,26,14.50
2018,12,20,16,27,30.60
2018,12,20,16,28,32.20
2018,12,20,16,29,19.30
2018,12,20,16,30,25.70
2018,12,20,16,31,25.70
2018,12,20,16,32,27.40
2018,12,20,16,33,27.40
2018,12,20,16,34,35.40
2018,12,20,16,35,46.70
2018,12,20,16,36,35.40
2018,12,20,16,37,33.80
2018,12,20,16,38,35.40
2018,12,20,16,39,27.40
2018,12,20,16,40,33.80
2018,12,20,16,41,25.70
2018,12,20,16,42,38.60
2018,12,20,16,43,35.40
2018,12,20,16,44,38.60
2018,12,20,16,45,40.20
2018,12,20,16,46,54.70
2018,12,20,16,47,30.60
2018,12,20,16,48,35.40
2018,12,20,16,49,57.90
2018,12,20,16,50,32.20
2018,12,20,16,51,27.40
2018,12,20,16,52,22.50
2018,12,20,16,53,16.10
2018,12,20,16,54,29.00
2018,12,20,16,55,33.80
2018,12,20,16,56,22.50
2018,12,20,16,57,20.90
2018,12,20,16,58,22.50
2018,12,20,16,59,22.50
2018,12,20,17,00,19.30
2018,12,20,17,01,16.10
2018,12,20,17,02,27.40
2018,12,20,17,03,17.70
2018,12,20,17,04,19.30
2018,12,20,17,05,11.30
2018,12,20,17,06,6.40
2018,12,20,17,07,22.50
2018,12,20,17,08,16.10
2018,12,20,17,09,22.50
2018,12,20,17,10,11.30
2018,12,20,17,11,20.90
2018,12,20,17,12,9.60
2018,12,20,17,13,9.60
2018,12,20,17,14,4.80
2018,12,20,17,15,16.10
2018,12,20,17,16,22.50
2018,12,20,17,17,16.10
2018,12,20,17,18,19.30
2018,12,20,17,19,12.90
2018,12,20,17,20,17.70
2018,12,20,17,21,17.70
2018,12,20,17,22,9.60
2018,12,20,17,23,6.40
2018,12,20,17,24,8.10
2018,12,20,17,25,20.90
2018,12,20,17,26,14.50
2018,12,20,17,27,4.80
2018,12,20,17,28,40.20
2018,12,20,17,29,27.40
2018,12,20,17,30,9.60
2018,12,20,17,31,12.90
2018,12,20,17,32,16.10
2018,12,20,17,33,29.00
2018,12,20,17,34,24.20
2018,12,20,17,35,20.90
2018,12,20,17,36,27.40
2018,12,20,17,37,20.90
2018,12,20,17,38,6.40
2018,12,20,17,39,16.10
2018,12,20,17,40,12.90
2018,12,20,17,41,8.10
2018,12,20,17,42,19.30
2018,12,20,17,43,22.50
2018,12,20,17,44,14.50
2018,12,20,17,45,19.30
2018,12,20,17,46,29.00
2018,12,20,17,47,20.90
2018,12,20,17,48,16.10
2018,12,20,17,49,9.60
2018,12,20,17,50,8.10
2018,12,20,17,51,16.10
2018,12,20,17,52,14.50
2018,12,20,17,53,4.80
2018,12,20,17,54,12.90
2018,12,20,17,55,8.10
2018,12,20,17,56,12.90
2018,12,20,17,57,14.50
2018,12,20,17,58,9.60
2018,12,20,17,59,20.90
2018,12,20,18,00,11.30
2018,12,20,18,01,17.70
2018,12,20,18,02,14.50
2018,12,20,18,03,4.80
2018,12,20,18,04,16.10
2018,12,20,18,05,22.50
2018,12,20,18,06,14.50
2018,12,20,18,07,22.50
2018,12,20,18,08,8.10
2018,12,20,18,09,8.10
2018,12,20,18,10,9.60
2018,12,20,18,11,22.50
2018,12,20,18,12,22.50
2018,12,20,18,13,12.90
2018,12,20,18,14,11.30
2018,12,20,18,15,14.50
2018,12,20,18,16,12.90
2018,12,20,18,17,24.20
2018,12,20,18,18,17.70
2018,12,20,18,19,11.30
2018,12,20,18,20,14.50
2018,12,20,18,21,12.90
2018,12,20,18,22,16.10
2018,12,20,18,23,6.40